Location: Hokitika
(42.7170°S, 170.9670°E)
Time: 17:07:27
(UTC+12:00)

Cosmos 2315 Rocket - Pass Details

Date: 24 January 2019
Orbit: 966 x 1002 km, 82.9° (Epoch: 19 April)

Event Time Altitude Azimuth Distance (km) Brightness Sun altitude
Rises 21:55:28 0° 187° (S) 3,747 7.7 -8.2°
Reaches altitude 10° 21:58:03 10° 184° (S) 2,786 7.0 -8.6°
Maximum altitude 22:04:26 72° 99° (E) 1,042 4.1 -9.5°
Drops below altitude 10° 22:10:42 10° 14° (NNE) 2,728 5.9 -10.4°
Enters shadow 22:11:51 - 13° (NNE) 3,160 6.2 -10.6°
